| time (UTC) | temp C | wind direction | speed KPH | gust KPH | rain 1hr cm | rain 24hr cm | rain mn cm | humidity % | barometer mb |
| 20260904035741 | 11 | 110 | 0.0 | 0.0 | 0.00 | 2.57 | 2.57 | 99 | 1009.6 |
| 20260904034733 | 11 | 110 | 0.0 | 0.0 | 0.00 | 2.57 | 2.57 | 99 | 1009.5 |
| 20260904033727 | 12 | 111 | 0.0 | 0.0 | 0.00 | 2.57 | 2.57 | 99 | 1009.2 |
| 20260904032722 | 12 | 102 | 0.0 | 0.0 | 0.00 | 2.57 | 2.57 | 99 | 1009.3 |
| 20260904031719 | 12 | 103 | 0.0 | 0.0 | 0.00 | 2.57 | 2.57 | 99 | 1009.0 |
| 20260904030647 | 12 | 101 | 0.0 | 0.0 | 0.00 | 2.57 | 2.57 | 99 | 1009.0 |
| 20260904025615 | 12 | 110 | 0.0 | 0.0 | 0.00 | 2.57 | 2.57 | 99 | 1009.0 |
| 20260904024558 | 12 | 107 | 0.0 | 0.0 | 0.05 | 2.57 | 2.57 | 99 | 1008.9 |
| 20260904023525 | 12 | 108 | 0.0 | 0.0 | 0.18 | 2.57 | 2.57 | 99 | 1009.0 |
| 20260904022510 | 12 | 111 | 0.0 | 0.0 | 0.23 | 2.57 | 2.57 | 99 | 1009.0 |
| 20260904021502 | 12 | 111 | 0.0 | 0.0 | 0.36 | 2.57 | 2.57 | 99 | 1009.0 |
| 20260904020443 | 12 | 112 | 0.0 | 0.0 | 0.48 | 2.57 | 2.57 | 99 | 1009.1 |
| 20260904015421 | 12 | 105 | 0.0 | 0.0 | 0.66 | 2.57 | 2.57 | 98 | 1008.8 |
| 20260904014405 | 12 | 98 | 0.0 | 0.0 | 0.94 | 2.49 | 2.49 | 98 | 1008.6 |
| 20260904013345 | 11 | 95 | 0.0 | 0.0 | 1.55 | 2.39 | 2.39 | 98 | 1008.9 |
| 20260904012344 | 11 | 93 | 0.0 | 0.0 | 1.88 | 2.31 | 2.31 | 97 | 1009.0 |
| 20260904011327 | 11 | 84 | 0.0 | 0.0 | 1.96 | 2.21 | 2.21 | 97 | 1009.2 |
| 20260904010322 | 12 | 83 | 0.0 | 0.0 | 1.83 | 2.06 | 2.06 | 97 | 1009.1 |
| 20260904005317 | 12 | 87 | 0.0 | 0.0 | 1.65 | 1.88 | 1.88 | 96 | 1009.0 |
| 20260904004241 | 12 | 85 | 0.0 | 0.0 | 1.27 | 1.50 | 1.50 | 94 | 1009.1 |
| 20260904003239 | 13 | 107 | 0.0 | 0.0 | 0.56 | 0.86 | 0.79 | 93 | 1009.0 |
| 20260904002235 | 14 | 111 | 0.0 | 0.0 | 0.18 | 0.53 | 0.41 | 90 | 1008.7 |
| 20260904001212 | 16 | 107 | 0.0 | 0.0 | 0.00 | 0.36 | 0.23 | 76 | 1008.6 |
| 20260904000204 | 17 | 104 | 0.0 | 0.0 | 0.00 | 0.36 | 0.23 | 72 | 1008.1 |
| 20260903235143 | 18 | 108 | 0.0 | 1.6 | 0.00 | 0.36 | 0.23 | 67 | 1008.2 |
| 20260903234136 | 18 | 109 | 0.0 | 0.0 | 0.00 | 0.36 | 0.23 | 67 | 1008.1 |
| 20260903233126 | 18 | 90 | 1.6 | 1.6 | 0.00 | 0.36 | 0.23 | 63 | 1008.0 |
| 20260903232057 | 19 | 101 | 0.0 | 0.0 | 0.00 | 0.36 | 0.23 | 61 | 1008.0 |
| 20260903231041 | 20 | 101 | 0.0 | 0.0 | 0.00 | 0.36 | 0.23 | 59 | 1008.1 |
| 20260903230032 | 21 | 122 | 0.0 | 0.0 | 0.00 | 0.36 | 0.23 | 49 | 1008.2 |
| 20260903225001 | 18 | 94 | 0.0 | 1.6 | 0.00 | 0.38 | 0.23 | 59 | 1008.3 |
| 20260903223934 | 19 | 100 | 0.0 | 0.0 | 0.00 | 0.43 | 0.23 | 57 | 1008.3 |
| 20260903222903 | 18 | 104 | 0.0 | 0.0 | 0.00 | 0.48 | 0.23 | 60 | 1008.2 |
| 20260903221859 | 18 | 101 | 3.2 | 3.2 | 0.00 | 0.51 | 0.23 | 59 | 1008.3 |
| 20260903220855 | 19 | 86 | 1.6 | 3.2 | 0.00 | 0.53 | 0.23 | 59 | 1008.3 |
| 20260903215843 | 19 | 102 | 0.0 | 0.0 | 0.00 | 0.58 | 0.23 | 51 | 1008.5 |
| 20260903214829 | 19 | 102 | 0.0 | 0.0 | 0.00 | 0.64 | 0.23 | 53 | 1008.4 |
| 20260903213749 | 19 | 122 | 0.0 | 0.0 | 0.00 | 0.66 | 0.23 | 51 | 1008.4 |
| 20260903212721 | 18 | 109 | 0.0 | 0.0 | 0.00 | 0.69 | 0.23 | 66 | 1008.5 |
| 20260903211710 | 17 | 105 | 0.0 | 0.0 | 0.00 | 0.69 | 0.23 | 71 | 1008.7 |
| 20260903210709 | 17 | 103 | 0.0 | 0.0 | 0.00 | 0.71 | 0.23 | 73 | 1008.5 |
| 20260903205651 | 17 | 99 | 1.6 | 1.6 | 0.00 | 0.76 | 0.23 | 71 | 1008.3 |
| 20260903204630 | 18 | 101 | 0.0 | 0.0 | 0.00 | 0.76 | 0.23 | 69 | 1008.3 |
| 20260903203625 | 17 | 178 | 3.2 | 4.8 | 0.00 | 0.76 | 0.23 | 67 | 1008.2 |
| 20260903202622 | 17 | 112 | 0.0 | 0.0 | 0.00 | 0.76 | 0.23 | 72 | 1008.2 |
| 20260903201558 | 18 | 229 | 4.8 | 4.8 | 0.00 | 0.76 | 0.23 | 64 | 1008.2 |
| 20260903200557 | 18 | 103 | 0.0 | 0.0 | 0.00 | 0.76 | 0.23 | 64 | 1008.3 |
| 20260903195526 | 18 | 110 | 0.0 | 0.0 | 0.00 | 0.76 | 0.23 | 65 | 1008.4 |
| 20260903194524 | 18 | 103 | 0.0 | 0.0 | 0.00 | 0.76 | 0.23 | 63 | 1008.2 |
| 20260903193455 | 17 | 97 | 1.6 | 3.2 | 0.00 | 0.79 | 0.23 | 66 | 1008.4 |
| 20260903192431 | 16 | 117 | 0.0 | 0.0 | 0.00 | 0.79 | 0.23 | 69 | 1008.4 |
| 20260903191421 | 16 | 113 | 0.0 | 0.0 | 0.00 | 0.79 | 0.23 | 76 | 1008.4 |
| 20260903190358 | 16 | 111 | 0.0 | 0.0 | 0.00 | 0.79 | 0.23 | 71 | 1008.3 |
| 20260903185335 | 16 | 126 | 1.6 | 1.6 | 0.00 | 0.79 | 0.23 | 71 | 1008.4 |
| 20260903184314 | 16 | 122 | 0.0 | 1.6 | 0.00 | 0.79 | 0.23 | 71 | 1008.4 |
| 20260903183258 | 16 | 119 | 0.0 | 0.0 | 0.00 | 0.79 | 0.23 | 79 | 1008.2 |
| 20260903182257 | 16 | 108 | 0.0 | 0.0 | 0.00 | 0.79 | 0.23 | 80 | 1008.2 |
| 20260903181248 | 16 | 117 | 0.0 | 0.0 | 0.00 | 0.79 | 0.23 | 81 | 1008.4 |
| 20260903180236 | 15 | 109 | 0.0 | 0.0 | 0.00 | 0.79 | 0.23 | 86 | 1008.3 |
| 20260903175227 | 15 | 109 | 0.0 | 0.0 | 0.00 | 0.79 | 0.23 | 86 | 1008.3 |
| 20260903174214 | 15 | 110 | 0.0 | 0.0 | 0.00 | 0.79 | 0.23 | 87 | 1008.2 |
| 20260903173201 | 14 | 110 | 0.0 | 0.0 | 0.00 | 0.79 | 0.23 | 89 | 1008.2 |
| 20260903172159 | 13 | 111 | 0.0 | 0.0 | 0.00 | 0.79 | 0.23 | 91 | 1008.3 |
| 20260903171146 | 13 | 111 | 0.0 | 0.0 | 0.00 | 0.79 | 0.23 | 91 | 1008.1 |
| 20260903170134 | 13 | 111 | 0.0 | 0.0 | 0.00 | 0.79 | 0.23 | 93 | 1008.2 |
| 20260903165105 | 13 | 111 | 0.0 | 0.0 | 0.00 | 0.79 | 0.23 | 94 | 1008.0 |
| 20260903164049 | 13 | 111 | 0.0 | 0.0 | 0.00 | 0.79 | 0.23 | 95 | 1008.2 |
| 20260903163035 | 12 | 111 | 0.0 | 0.0 | 0.00 | 0.79 | 0.23 | 96 | 1008.0 |
| 20260903162024 | 12 | 109 | 0.0 | 0.0 | 0.00 | 0.79 | 0.23 | 97 | 1007.9 |
| 20260903161007 | 12 | 109 | 0.0 | 0.0 | 0.00 | 0.79 | 0.23 | 98 | 1008.1 |
| 20260903155929 | 12 | 109 | 0.0 | 0.0 | 0.00 | 0.79 | 0.23 | 98 | 1008.1 |
| 20260903154915 | 12 | 109 | 0.0 | 0.0 | 0.00 | 0.79 | 0.23 | 99 | 1008.2 |
| 20260903153914 | 11 | 111 | 0.0 | 0.0 | 0.00 | 0.79 | 0.23 | 99 | 1008.2 |
| 20260903152858 | 11 | 106 | 0.0 | 0.0 | 0.03 | 0.79 | 0.23 | 99 | 1008.1 |
| 20260903151845 | 11 | 106 | 0.0 | 0.0 | 0.03 | 0.79 | 0.23 | 99 | 1008.0 |
| 20260903150828 | 11 | 106 | 0.0 | 0.0 | 0.03 | 0.79 | 0.23 | 99 | 1008.0 |
| 20260903145814 | 11 | 106 | 0.0 | 0.0 | 0.05 | 0.79 | 0.23 | 99 | 1007.8 |
| 20260903144746 | 11 | 106 | 0.0 | 0.0 | 0.08 | 0.79 | 0.23 | 99 | 1007.8 |
| 20260903143736 | 11 | 106 | 0.0 | 0.0 | 0.08 | 0.79 | 0.23 | 99 | 1007.9 |
| 20260903142714 | 11 | 106 | 0.0 | 0.0 | 0.08 | 0.76 | 0.20 | 99 | 1007.8 |
| 20260903141653 | 11 | 107 | 0.0 | 0.0 | 0.10 | 0.76 | 0.20 | 99 | 1007.5 |
| 20260903140644 | 11 | 103 | 0.0 | 0.0 | 0.10 | 0.76 | 0.20 | 99 | 1007.7 |
| 20260903135640 | 10 | 103 | 0.0 | 0.0 | 0.08 | 0.74 | 0.18 | 99 | 1007.8 |
| 20260903134625 | 10 | 103 | 0.0 | 0.0 | 0.10 | 0.71 | 0.15 | 99 | 1007.8 |
| 20260903133606 | 10 | 103 | 0.0 | 0.0 | 0.10 | 0.69 | 0.13 | 98 | 1007.6 |
| 20260903132557 | 10 | 103 | 0.0 | 0.0 | 0.10 | 0.69 | 0.13 | 98 | 1007.6 |
| 20260903131529 | 10 | 103 | 0.0 | 0.0 | 0.10 | 0.66 | 0.10 | 98 | 1007.3 |
| 20260903130524 | 10 | 103 | 0.0 | 0.0 | 0.10 | 0.66 | 0.10 | 98 | 1007.4 |
| 20260903125503 | 11 | 103 | 0.0 | 0.0 | 0.10 | 0.66 | 0.10 | 97 | 1007.3 |
| 20260903124448 | 11 | 110 | 0.0 | 0.0 | 0.05 | 0.61 | 0.05 | 97 | 1007.5 |
| 20260903123421 | 10 | 111 | 0.0 | 0.0 | 0.03 | 0.58 | 0.03 | 97 | 1007.4 |
| 20260903122354 | 10 | 111 | 0.0 | 0.0 | 0.00 | 0.56 | 0.00 | 96 | 1007.6 |
| 20260903121318 | 10 | 111 | 0.0 | 0.0 | 0.00 | 0.56 | 0.00 | 96 | 1007.3 |
| 20260903120250 | 10 | 111 | 0.0 | 0.0 | 0.00 | 0.56 | 0.00 | 96 | 1007.0 |
| 20260903115227 | 10 | 111 | 0.0 | 0.0 | 0.00 | 0.56 | 0.00 | 96 | 1006.9 |
| 20260903114203 | 10 | 111 | 0.0 | 0.0 | 0.00 | 0.56 | 0.00 | 96 | 1006.9 |
| 20260903113149 | 10 | 107 | 0.0 | 0.0 | 0.00 | 0.56 | 0.00 | 96 | 1006.7 |
| 20260903112148 | 10 | 107 | 0.0 | 0.0 | 0.00 | 0.56 | 0.00 | 96 | 1006.7 |
| 20260903111127 | 10 | 106 | 0.0 | 0.0 | 0.00 | 0.56 | 0.00 | 96 | 1006.9 |
| 20260903110044 | 10 | 106 | 0.0 | 0.0 | 0.00 | 0.56 | 0.00 | 96 | 1006.9 |
| 20260903105022 | 10 | 106 | 0.0 | 0.0 | 0.00 | 0.56 | 0.00 | 96 | 1006.9 |
| 20260903104021 | 10 | 106 | 0.0 | 0.0 | 0.00 | 0.56 | 0.00 | 96 | 1006.8 |
| 20260903103002 | 10 | 106 | 0.0 | 0.0 | 0.00 | 0.56 | 0.00 | 97 | 1006.8 |
| 20260903102002 | 10 | 106 | 0.0 | 0.0 | 0.00 | 0.56 | 0.00 | 96 | 1006.7 |
| 20260903100952 | 10 | 106 | 0.0 | 0.0 | 0.00 | 0.56 | 0.00 | 96 | 1007.0 |
| 20260903095925 | 10 | 106 | 0.0 | 0.0 | 0.00 | 0.56 | 0.00 | 97 | 1006.6 |
| 20260903094916 | 10 | 106 | 0.0 | 0.0 | 0.00 | 0.56 | 0.00 | 96 | 1006.8 |
| 20260903093851 | 10 | 106 | 0.0 | 0.0 | 0.00 | 0.56 | 0.00 | 96 | 1006.9 |
| 20260903092827 | 10 | 106 | 0.0 | 0.0 | 0.00 | 0.56 | 0.00 | 96 | 1006.7 |
| 20260903091823 | 10 | 106 | 0.0 | 0.0 | 0.00 | 0.56 | 0.00 | 97 | 1006.7 |
| 20260903090808 | 10 | 106 | 0.0 | 0.0 | 0.00 | 0.56 | 0.00 | 97 | 1006.7 |
| 20260903085744 | 10 | 106 | 0.0 | 0.0 | 0.00 | 0.56 | 0.00 | 97 | 1006.7 |
| 20260903084743 | 10 | 106 | 0.0 | 0.0 | 0.00 | 0.56 | 0.00 | 97 | 1006.6 |
| 20260903083742 | 10 | 106 | 0.0 | 0.0 | 0.00 | 0.56 | 0.00 | 97 | 1006.8 |
| 20260903082719 | 10 | 106 | 0.0 | 0.0 | 0.00 | 0.56 | 0.00 | 97 | 1006.6 |
| 20260903081701 | 10 | 106 | 0.0 | 0.0 | 0.00 | 0.56 | 0.00 | 97 | 1006.5 |
| 20260903080645 | 10 | 106 | 0.0 | 0.0 | 0.00 | 0.56 | 0.00 | 98 | 1006.6 |
| 20260903075631 | 10 | 106 | 0.0 | 0.0 | 0.00 | 0.56 | 0.56 | 99 | 1006.7 |
| 20260903074615 | 10 | 106 | 0.0 | 0.0 | 0.00 | 0.56 | 0.56 | 99 | 1006.6 |
| 20260903073558 | 10 | 106 | 0.0 | 0.0 | 0.00 | 0.56 | 0.56 | 99 | 1006.5 |
| 20260903072545 | 10 | 106 | 0.0 | 0.0 | 0.00 | 0.56 | 0.56 | 99 | 1006.5 |
| 20260903071533 | 10 | 106 | 0.0 | 0.0 | 0.00 | 0.56 | 0.56 | 99 | 1006.5 |
| 20260903070517 | 10 | 106 | 0.0 | 0.0 | 0.00 | 0.56 | 0.56 | 99 | 1006.5 |
| 20260903065508 | 10 | 106 | 0.0 | 0.0 | 0.00 | 0.56 | 0.56 | 99 | 1006.4 |
| 20260903064502 | 10 | 106 | 0.0 | 0.0 | 0.00 | 0.56 | 0.56 | 99 | 1006.4 |
| 20260903063500 | 11 | 106 | 0.0 | 0.0 | 0.00 | 0.56 | 0.56 | 99 | 1006.5 |
| 20260903062451 | 11 | 106 | 0.0 | 0.0 | 0.00 | 0.56 | 0.56 | 99 | 1006.3 |
| 20260903061439 | 11 | 106 | 0.0 | 0.0 | 0.00 | 0.56 | 0.56 | 99 | 1006.5 |
| 20260903060432 | 11 | 106 | 0.0 | 0.0 | 0.00 | 0.56 | 0.56 | 99 | 1006.5 |
| 20260903055427 | 11 | 106 | 0.0 | 0.0 | 0.00 | 0.56 | 0.56 | 99 | 1006.6 |
| 20260903054412 | 11 | 106 | 0.0 | 0.0 | 0.00 | 0.56 | 0.56 | 99 | 1006.4 |
| 20260903053348 | 11 | 106 | 0.0 | 0.0 | 0.00 | 0.56 | 0.56 | 99 | 1006.5 |
| 20260903052315 | 11 | 106 | 0.0 | 0.0 | 0.00 | 0.56 | 0.56 | 99 | 1006.6 |
| 20260903051313 | 11 | 106 | 0.0 | 0.0 | 0.00 | 0.56 | 0.56 | 99 | 1006.5 |
| 20260903050307 | 11 | 106 | 0.0 | 0.0 | 0.00 | 0.56 | 0.56 | 99 | 1006.5 |
| 20260903045252 | 11 | 106 | 0.0 | 0.0 | 0.00 | 0.56 | 0.56 | 99 | 1006.4 |
| 20260903044234 | 11 | 106 | 0.0 | 0.0 | 0.00 | 0.56 | 0.56 | 99 | 1006.2 |
| 20260903043230 | 11 | 106 | 0.0 | 0.0 | 0.00 | 0.56 | 0.56 | 98 | 1006.1 |
| 20260903042230 | 11 | 106 | 0.0 | 0.0 | 0.00 | 0.56 | 0.56 | 98 | 1006.2 |
| 20260903041200 | 12 | 106 | 0.0 | 0.0 | 0.00 | 0.56 | 0.56 | 98 | 1006.0 |